Date String (YYYY-MM-DD hh:mm:ss) UTC,Instrument flags,Ambient pressure (hPa),Sample flow (lpm),Bypass flow (lpm),Sample temperature (°C),Ambient temperature (°C),ASC tube jacket temperature (°C),LED temperature (°C),Box temperature (°C),Sample RH (%),Span deviation,Mass concentration (μg/m³),Mass concentration (μg/m³),Mass concentration (μg/m³)
DateTimeUTC,F1_M11,P_M11,Q1_M11,Q2_M11,T1_M11,T2_M11,T3_M11,T4_M11,T5_M11,U1_M11,ZSPAN_M11,X0_M11,X2_M11,X1_M11
2022-12-01 10:00:00,,0819.0,4.99,0.00,22.0,20.6,00.0,31.0,23.8,09.8,0000.0,0008.47,0004.98,0004.60
2022-12-01 10:01:00,,0818.9,5.00,0.00,22.0,20.6,00.0,30.9,23.8,09.9,0000.0,0009.18,0005.34,0004.96
2022-12-01 10:02:00,,0819.1,5.00,0.00,22.0,20.6,00.0,30.9,23.8,09.9,0000.0,0009.41,0005.59,0005.21
2022-12-01 10:03:00,,0819.2,5.00,0.00,22.0,20.6,00.0,30.9,23.8,09.9,0000.0,0009.46,0005.76,0005.41
2022-12-01 10:04:00,,0819.1,5.00,0.00,22.0,20.6,00.0,30.9,23.8,09.7,0000.0,0009.76,0006.02,0005.66
2022-12-01 10:05:00,,0818.9,5.01,0.00,22.0,21.3,00.0,30.9,23.9,10.0,0000.0,0009.98,0006.21,0005.85
2022-12-01 10:06:00,,0818.9,5.00,0.00,22.1,22.2,00.0,30.9,24.1,11.1,0000.0,0010.03,0006.16,0005.81
2022-12-01 10:07:00,,0818.9,5.00,0.00,22.2,22.3,00.0,30.9,24.2,11.2,0000.0,0010.11,0006.10,0005.76
2022-12-01 10:08:00,,0819.0,4.99,0.00,22.2,21.9,00.0,31.0,24.2,11.1,0000.0,0009.97,0005.98,0005.67
2022-12-01 10:09:00,,0818.9,5.00,0.00,22.2,21.3,00.0,31.0,24.0,10.4,0000.0,0009.72,0005.74,0005.44
2022-12-01 10:10:00,,0818.9,5.01,0.00,22.2,21.1,00.0,31.0,24.0,10.2,0000.0,0009.36,0005.48,0005.19
2022-12-01 10:11:00,,0818.9,5.00,0.00,22.2,21.0,00.0,31.0,24.0,10.1,0000.0,0008.92,0005.27,0004.98
2022-12-01 10:12:00,,0818.9,5.00,0.00,22.2,20.9,00.0,31.0,24.0,10.4,0000.0,0008.53,0005.14,0004.84
2022-12-01 10:13:00,,0818.8,4.99,0.00,22.1,20.8,00.0,31.0,23.9,11.0,0000.0,0008.63,0004.99,0004.68
2022-12-01 10:14:00,,0818.7,5.00,0.00,22.1,20.7,00.0,31.0,23.9,11.3,0000.0,0008.50,0004.77,0004.45
2022-12-01 10:15:00,,0818.7,5.00,0.00,22.1,20.6,00.0,31.0,23.8,10.8,0000.0,0008.08,0004.41,0004.11
2022-12-01 10:16:00,,0818.7,5.01,0.00,22.1,20.6,00.0,31.0,23.8,10.2,0000.0,0007.70,0004.08,0003.81
2022-12-01 10:17:00,,0818.6,5.00,0.00,22.0,20.6,00.0,31.0,23.8,09.7,0000.0,0007.53,0003.97,0003.70
2022-12-01 10:18:00,,0818.7,4.99,0.00,22.0,20.5,00.0,31.0,23.8,09.4,0000.0,0007.06,0003.89,0003.64
2022-12-01 10:19:00,,0818.8,4.99,0.00,22.0,20.3,00.0,31.0,23.7,10.1,0000.0,0007.16,0003.94,0003.68
2022-12-01 10:20:00,,0818.8,5.00,0.00,21.9,19.9,00.0,31.0,23.5,10.5,0000.0,0007.45,0003.91,0003.65
2022-12-01 10:21:00,,0818.8,5.01,0.00,21.9,20.0,00.0,30.9,23.5,10.7,0000.0,0007.70,0003.84,0003.58
2022-12-01 10:22:00,,0818.8,5.01,0.00,21.9,21.2,00.0,30.8,23.7,10.3,0000.0,0007.34,0003.61,0003.39
2022-12-01 10:23:00,,0818.8,4.99,0.00,22.1,22.0,00.0,30.8,24.0,10.3,0000.0,0006.42,0003.40,0003.18
2022-12-01 10:24:00,,0818.9,5.00,0.00,22.1,21.8,00.0,30.9,24.0,10.6,0000.0,0005.99,0003.38,0003.18
2022-12-01 10:25:00,,0818.9,4.99,0.00,22.1,21.5,00.0,30.9,24.0,10.6,0000.0,0005.82,0003.43,0003.24
2022-12-01 10:26:00,,0818.9,5.01,0.00,22.1,21.2,00.0,31.0,23.9,10.8,0000.0,0005.86,0003.44,0003.25
2022-12-01 10:27:00,,0818.8,5.01,0.00,22.1,21.0,00.0,31.0,23.9,11.0,0000.0,0006.07,0003.49,0003.29
2022-12-01 10:28:00,,0818.7,4.99,0.00,22.1,20.8,00.0,31.0,23.8,10.6,0000.0,0007.01,0003.52,0003.33
2022-12-01 10:29:00,,0818.8,4.99,0.00,22.0,20.7,00.0,31.0,23.8,10.4,0000.0,0007.78,0003.59,0003.38
2022-12-01 10:30:00,,0818.8,5.00,0.00,22.0,20.6,00.0,31.0,23.8,10.2,0000.0,0007.91,0003.58,0003.36
2022-12-01 10:31:00,,0818.9,5.01,0.00,22.0,20.7,00.0,31.0,23.8,10.2,0000.0,0007.67,0003.52,0003.27
2022-12-01 10:32:00,,0818.9,5.00,0.00,22.0,20.6,00.0,31.0,23.8,10.5,0000.0,0007.21,0003.40,0003.16
2022-12-01 10:33:00,,0818.9,5.00,0.00,22.0,20.4,00.0,30.9,23.7,10.7,0000.0,0006.94,0003.40,0003.16
2022-12-01 10:34:00,,0819.0,4.99,0.00,21.9,20.1,00.0,30.9,23.6,10.7,0000.0,0007.22,0003.53,0003.27
2022-12-01 10:35:00,,0819.0,4.99,0.00,21.9,20.0,00.0,30.9,23.5,10.7,0000.0,0007.33,0003.58,0003.32
2022-12-01 10:36:00,,0818.9,5.01,0.00,21.8,19.9,00.0,30.9,23.5,10.7,0000.0,0007.29,0003.56,0003.31
2022-12-01 10:37:00,,0818.9,5.01,0.00,21.8,20.1,00.0,30.8,23.5,10.6,0000.0,0007.43,0003.69,0003.44
2022-12-01 10:38:00,,0818.8,5.00,0.00,21.9,21.2,00.0,30.8,23.7,10.3,0000.0,0007.73,0003.97,0003.68
2022-12-01 10:39:00,,0818.8,5.00,0.00,22.0,22.0,00.0,30.8,23.9,10.1,0000.0,0007.39,0004.29,0003.98
2022-12-01 10:40:00,,0818.8,4.99,0.00,22.0,21.5,00.0,30.8,23.9,09.8,0000.0,0007.37,0004.62,0004.32
2022-12-01 10:41:00,,0818.9,5.00,0.00,22.0,21.0,00.0,30.9,23.7,09.9,0000.0,0007.59,0004.92,0004.64
2022-12-01 10:42:00,,0819.1,5.01,0.00,21.9,20.7,00.0,30.9,23.7,10.3,0000.0,0007.76,0005.08,0004.81
2022-12-01 10:43:00,,0819.1,5.01,0.00,21.9,20.6,00.0,30.9,23.7,10.6,0000.0,0007.91,0005.25,0004.97
2022-12-01 10:44:00,,0819.0,5.00,0.00,21.9,20.4,00.0,30.9,23.7,10.9,0000.0,0007.94,0005.26,0004.98
2022-12-01 10:45:00,,0818.9,5.00,0.00,21.9,20.3,00.0,30.9,23.7,10.9,0000.0,0007.88,0005.22,0004.94
2022-12-01 10:46:00,,0818.7,5.00,0.00,21.8,20.1,00.0,30.9,23.5,10.7,0000.0,0007.89,0005.20,0004.92
2022-12-01 10:47:00,,0818.4,5.00,0.00,21.8,20.1,00.0,30.9,23.5,10.6,0000.0,0008.07,0005.25,0004.96
2022-12-01 10:48:00,,0818.3,5.00,0.00,21.8,20.2,00.0,30.8,23.5,10.6,0000.0,0008.16,0005.28,0004.97
2022-12-01 10:49:00,,0818.4,5.00,0.00,21.8,20.2,00.0,30.8,23.5,10.5,0000.0,0007.99,0005.18,0004.89
2022-12-01 10:50:00,,0818.6,5.00,0.00,21.8,20.3,00.0,30.8,23.5,10.6,0000.0,0008.32,0005.02,0004.77
2022-12-01 10:51:00,,0818.9,5.00,0.00,21.8,20.3,00.0,30.8,23.5,10.8,0000.0,0008.66,0004.82,0004.54
2022-12-01 10:52:00,,0819.0,5.00,0.00,21.8,20.6,00.0,30.7,23.5,11.0,0000.0,0008.43,0004.57,0004.27
2022-12-01 10:53:00,,0818.9,5.00,0.00,21.9,21.6,00.0,30.7,23.8,10.9,0000.0,0008.32,0004.43,0004.12
2022-12-01 10:54:00,,0818.9,5.00,0.00,22.0,22.1,00.0,30.7,24.0,10.8,0000.0,0008.22,0004.37,0004.07
2022-12-01 10:55:00,,0818.9,4.99,0.00,22.0,21.4,00.0,30.8,23.8,10.7,0000.0,0008.39,0004.44,0004.13
2022-12-01 10:56:00,,0818.9,4.99,0.00,21.9,20.9,00.0,30.8,23.7,10.7,0000.0,0008.54,0004.56,0004.25
2022-12-01 10:57:00,,0818.9,5.00,0.00,21.9,20.6,00.0,30.8,23.7,10.7,0000.0,0008.53,0004.60,0004.30
2022-12-01 10:58:00,,0818.9,5.00,0.00,21.9,20.5,00.0,30.8,23.6,10.8,0000.0,0008.38,0004.59,0004.31
2022-12-01 10:59:00,,0818.9,5.00,0.00,21.9,20.4,00.0,30.8,23.6,10.8,0000.0,0008.69,0004.54,0004.28
